Date_Time,Julian_Date,Latitude,Longitude,Instrument_Depth,U,V,Speed,Direction
(yyyy-mm-dd hh:mn:ss UTC),(JD),(+ deg. North),(+ deg. East),(m),(cm/s),(cm/s),(cm/s),(deg True)
1983-10-27 21:30:00 UTC,2445635.395833,28.7467,-95.2267,0206,-2.90,0.78,3.0000,285.0000
1983-10-27 22:00:00 UTC,2445635.416667,28.7467,-95.2267,0206,-1.80,0.88,2.0000,296.0000
1983-10-27 22:30:00 UTC,2445635.437500,28.7467,-95.2267,0206,-0.00,0.00,0.0000,291.0000
1983-10-27 23:00:00 UTC,2445635.458333,28.7467,-95.2267,0206,0.00,-0.00,0.0000,151.0000
1983-10-27 23:30:00 UTC,2445635.479167,28.7467,-95.2267,0206,0.68,-0.73,1.0000,137.0000
1983-10-28 00:00:00 UTC,2445635.500000,28.7467,-95.2267,0206,0.50,-0.87,1.0000,150.0000
1983-10-28 00:30:00 UTC,2445635.520833,28.7467,-95.2267,0206,0.16,-0.99,1.0000,171.0000
1983-10-28 01:00:00 UTC,2445635.541667,28.7467,-95.2267,0206,-0.19,-0.98,1.0000,191.0000
1983-10-28 01:30:00 UTC,2445635.562500,28.7467,-95.2267,0206,-0.57,-0.82,1.0000,215.0000
1983-10-28 02:00:00 UTC,2445635.583333,28.7467,-95.2267,0206,-2.30,-1.93,3.0000,230.0000
1983-10-28 02:30:00 UTC,2445635.604167,28.7467,-95.2267,0206,-3.32,-2.24,4.0000,236.0000
1983-10-28 03:00:00 UTC,2445635.625000,28.7467,-95.2267,0206,-2.60,-1.50,3.0000,240.0000
1983-10-28 03:30:00 UTC,2445635.645833,28.7467,-95.2267,0206,-0.89,-0.45,1.0000,243.0000
1983-10-28 04:00:00 UTC,2445635.666667,28.7467,-95.2267,0206,-0.87,-0.50,1.0000,240.0000
1983-10-28 04:30:00 UTC,2445635.687500,28.7467,-95.2267,0206,-1.71,-1.03,2.0000,239.0000
1983-10-28 05:00:00 UTC,2445635.708333,28.7467,-95.2267,0206,-2.65,-1.41,3.0000,242.0000
1983-10-28 05:30:00 UTC,2445635.729167,28.7467,-95.2267,0206,-3.78,-1.30,4.0000,251.0000
1983-10-28 06:00:00 UTC,2445635.750000,28.7467,-95.2267,0206,-5.94,-0.84,6.0000,262.0000
1983-10-28 06:30:00 UTC,2445635.770833,28.7467,-95.2267,0206,-7.00,-0.00,7.0000,270.0000
1983-10-28 07:00:00 UTC,2445635.791667,28.7467,-95.2267,0206,-5.93,0.94,6.0000,279.0000
1983-10-28 07:30:00 UTC,2445635.812500,28.7467,-95.2267,0206,-4.76,1.55,5.0000,288.0000
1983-10-28 08:00:00 UTC,2445635.833333,28.7467,-95.2267,0206,-4.73,1.63,5.0000,289.0000
1983-10-28 08:30:00 UTC,2445635.854167,28.7467,-95.2267,0206,-4.73,1.63,5.0000,289.0000
1983-10-28 09:00:00 UTC,2445635.875000,28.7467,-95.2267,0206,-4.49,2.19,5.0000,296.0000
1983-10-28 09:30:00 UTC,2445635.895833,28.7467,-95.2267,0206,-4.10,2.87,5.0000,305.0000
1983-10-28 10:00:00 UTC,2445635.916667,28.7467,-95.2267,0206,-2.93,2.73,4.0000,313.0000
1983-10-28 10:30:00 UTC,2445635.937500,28.7467,-95.2267,0206,-1.85,2.36,3.0000,322.0000
1983-10-28 11:00:00 UTC,2445635.958333,28.7467,-95.2267,0206,-1.72,2.46,3.0000,325.0000
1983-10-28 11:30:00 UTC,2445635.979167,28.7467,-95.2267,0206,-2.93,2.73,4.0000,313.0000
1983-10-28 12:00:00 UTC,2445636.000000,28.7467,-95.2267,0206,-3.63,1.69,4.0000,295.0000
1983-10-28 12:30:00 UTC,2445636.020833,28.7467,-95.2267,0206,-4.94,0.78,5.0000,279.0000
1983-10-28 13:00:00 UTC,2445636.041667,28.7467,-95.2267,0206,-4.00,-0.14,4.0000,268.0000
1983-10-28 13:30:00 UTC,2445636.062500,28.7467,-95.2267,0206,-1.95,-0.45,2.0000,257.0000
1983-10-28 14:00:00 UTC,2445636.083333,28.7467,-95.2267,0206,-0.00,-0.00,0.0000,224.0000
1983-10-28 14:30:00 UTC,2445636.104167,28.7467,-95.2267,0206,-0.03,-1.00,1.0000,182.0000
1983-10-28 15:00:00 UTC,2445636.125000,28.7467,-95.2267,0206,-0.24,-1.99,2.0000,187.0000
1983-10-28 15:30:00 UTC,2445636.145833,28.7467,-95.2267,0206,-1.63,-3.65,4.0000,204.0000
1983-10-28 16:00:00 UTC,2445636.166667,28.7467,-95.2267,0206,-4.41,-5.44,7.0000,219.0000
1983-10-28 16:30:00 UTC,2445636.187500,28.7467,-95.2267,0206,-6.82,-7.31,10.0000,223.0000
1983-10-28 17:00:00 UTC,2445636.208333,28.7467,-95.2267,0206,-6.29,-7.77,10.0000,219.0000
1983-10-28 17:30:00 UTC,2445636.229167,28.7467,-95.2267,0206,-5.03,-7.46,9.0000,214.0000
1983-10-28 18:00:00 UTC,2445636.250000,28.7467,-95.2267,0206,-4.50,-7.79,9.0000,210.0000
1983-10-28 18:30:00 UTC,2445636.270833,28.7467,-95.2267,0206,-4.50,-7.79,9.0000,210.0000
1983-10-28 19:00:00 UTC,2445636.291667,28.7467,-95.2267,0206,-5.16,-7.37,9.0000,215.0000
1983-10-28 19:30:00 UTC,2445636.312500,28.7467,-95.2267,0206,-5.79,-6.89,9.0000,220.0000
1983-10-28 20:00:00 UTC,2445636.333333,28.7467,-95.2267,0206,-5.85,-5.46,8.0000,227.0000
1983-10-28 20:30:00 UTC,2445636.354167,28.7467,-95.2267,0206,-5.73,-4.02,7.0000,235.0000
1983-10-28 21:00:00 UTC,2445636.375000,28.7467,-95.2267,0206,-5.09,-3.18,6.0000,238.0000
1983-10-28 21:30:00 UTC,2445636.395833,28.7467,-95.2267,0206,-3.99,-3.01,5.0000,233.0000
1983-10-28 22:00:00 UTC,2445636.416667,28.7467,-95.2267,0206,-3.35,-3.72,5.0000,222.0000
1983-10-28 22:30:00 UTC,2445636.437500,28.7467,-95.2267,0206,-3.15,-3.89,5.0000,219.0000
1983-10-28 23:00:00 UTC,2445636.458333,28.7467,-95.2267,0206,-3.83,-3.21,5.0000,230.0000
1983-10-28 23:30:00 UTC,2445636.479167,28.7467,-95.2267,0206,-4.19,-2.72,5.0000,237.0000
1983-10-29 00:00:00 UTC,2445636.500000,28.7467,-95.2267,0206,-3.65,-1.63,4.0000,246.0000
1983-10-29 00:30:00 UTC,2445636.520833,28.7467,-95.2267,0206,-2.80,1.08,3.0000,291.0000
1983-10-29 01:00:00 UTC,2445636.541667,28.7467,-95.2267,0206,-1.63,2.52,3.0000,327.0000
1983-10-29 01:30:00 UTC,2445636.562500,28.7467,-95.2267,0206,-0.75,1.85,2.0000,338.0000
1983-10-29 02:00:00 UTC,2445636.583333,28.7467,-95.2267,0206,-0.00,0.00,0.0000,304.0000
1983-10-29 02:30:00 UTC,2445636.604167,28.7467,-95.2267,0206,-0.38,-1.96,2.0000,191.0000
1983-10-29 03:00:00 UTC,2445636.625000,28.7467,-95.2267,0206,-1.17,-3.83,4.0000,197.0000
1983-10-29 03:30:00 UTC,2445636.645833,28.7467,-95.2267,0206,-2.35,-3.24,4.0000,216.0000
1983-10-29 04:00:00 UTC,2445636.666667,28.7467,-95.2267,0206,-3.94,-3.08,5.0000,232.0000
1983-10-29 04:30:00 UTC,2445636.687500,28.7467,-95.2267,0206,-6.22,-5.03,8.0000,231.0000
1983-10-29 05:00:00 UTC,2445636.708333,28.7467,-95.2267,0206,-8.30,-7.22,11.0000,229.0000
1983-10-29 05:30:00 UTC,2445636.729167,28.7467,-95.2267,0206,-8.49,-8.49,12.0000,225.0000
1983-10-29 06:00:00 UTC,2445636.750000,28.7467,-95.2267,0206,-8.03,-8.92,12.0000,222.0000
1983-10-29 06:30:00 UTC,2445636.770833,28.7467,-95.2267,0206,-8.63,-8.34,12.0000,226.0000
1983-10-29 07:00:00 UTC,2445636.791667,28.7467,-95.2267,0206,-9.19,-7.71,12.0000,230.0000
1983-10-29 07:30:00 UTC,2445636.812500,28.7467,-95.2267,0206,-6.95,-7.19,10.0000,224.0000
1983-10-29 08:00:00 UTC,2445636.833333,28.7467,-95.2267,0206,-4.24,-6.78,8.0000,212.0000
1983-10-29 08:30:00 UTC,2445636.854167,28.7467,-95.2267,0206,-4.00,-6.93,8.0000,210.0000
1983-10-29 09:00:00 UTC,2445636.875000,28.7467,-95.2267,0206,-4.00,-6.93,8.0000,210.0000
1983-10-29 09:30:00 UTC,2445636.895833,28.7467,-95.2267,0206,-3.88,-7.00,8.0000,209.0000
1983-10-29 10:00:00 UTC,2445636.916667,28.7467,-95.2267,0206,-3.29,-6.18,7.0000,208.0000
1983-10-29 10:30:00 UTC,2445636.937500,28.7467,-95.2267,0206,-3.50,-6.06,7.0000,210.0000
1983-10-29 11:00:00 UTC,2445636.958333,28.7467,-95.2267,0206,-3.09,-5.14,6.0000,211.0000
1983-10-29 11:30:00 UTC,2445636.979167,28.7467,-95.2267,0206,-3.27,-5.03,6.0000,213.0000
1983-10-29 12:00:00 UTC,2445637.000000,28.7467,-95.2267,0206,-2.58,-4.29,5.0000,211.0000
1983-10-29 12:30:00 UTC,2445637.020833,28.7467,-95.2267,0206,-2.27,-4.46,5.0000,207.0000
1983-10-29 13:00:00 UTC,2445637.041667,28.7467,-95.2267,0206,-2.58,-4.29,5.0000,211.0000
1983-10-29 13:30:00 UTC,2445637.062500,28.7467,-95.2267,0206,-3.36,-4.97,6.0000,214.0000
1983-10-29 14:00:00 UTC,2445637.083333,28.7467,-95.2267,0206,-3.09,-5.14,6.0000,211.0000
1983-10-29 14:30:00 UTC,2445637.104167,28.7467,-95.2267,0206,-2.72,-5.35,6.0000,207.0000
1983-10-29 15:00:00 UTC,2445637.125000,28.7467,-95.2267,0206,-2.96,-6.34,7.0000,205.0000
1983-10-29 15:30:00 UTC,2445637.145833,28.7467,-95.2267,0206,-3.39,-6.12,7.0000,209.0000
1983-10-29 16:00:00 UTC,2445637.166667,28.7467,-95.2267,0206,-3.86,-4.60,6.0000,220.0000
1983-10-29 16:30:00 UTC,2445637.187500,28.7467,-95.2267,0206,-4.66,-3.78,6.0000,231.0000
1983-10-29 17:00:00 UTC,2445637.208333,28.7467,-95.2267,0206,-4.24,-4.24,6.0000,225.0000
1983-10-29 17:30:00 UTC,2445637.229167,28.7467,-95.2267,0206,-3.00,-5.20,6.0000,210.0000
1983-10-29 18:00:00 UTC,2445637.250000,28.7467,-95.2267,0206,-1.85,-5.71,6.0000,198.0000
1983-10-29 18:30:00 UTC,2445637.270833,28.7467,-95.2267,0206,-1.69,-6.79,7.0000,194.0000
1983-10-29 19:00:00 UTC,2445637.291667,28.7467,-95.2267,0206,-1.93,-6.73,7.0000,196.0000
1983-10-29 19:30:00 UTC,2445637.312500,28.7467,-95.2267,0206,-1.75,-5.74,6.0000,197.0000
1983-10-29 20:00:00 UTC,2445637.333333,28.7467,-95.2267,0206,-1.35,-5.85,6.0000,193.0000
1983-10-29 20:30:00 UTC,2445637.354167,28.7467,-95.2267,0206,-0.94,-5.93,6.0000,189.0000
1983-10-29 21:00:00 UTC,2445637.375000,28.7467,-95.2267,0206,-0.94,-5.93,6.0000,189.0000
1983-10-29 21:30:00 UTC,2445637.395833,28.7467,-95.2267,0206,-1.35,-5.85,6.0000,193.0000
1983-10-29 22:00:00 UTC,2445637.416667,28.7467,-95.2267,0206,-1.79,-4.67,5.0000,201.0000
1983-10-29 22:30:00 UTC,2445637.437500,28.7467,-95.2267,0206,-2.11,-4.53,5.0000,205.0000
1983-10-29 23:00:00 UTC,2445637.458333,28.7467,-95.2267,0206,-2.05,-5.64,6.0000,200.0000
1983-10-29 23:30:00 UTC,2445637.479167,28.7467,-95.2267,0206,-1.45,-5.82,6.0000,194.0000
1983-10-30 00:00:00 UTC,2445637.500000,28.7467,-95.2267,0206,-1.14,-5.89,6.0000,191.0000
1983-10-30 00:30:00 UTC,2445637.520833,28.7467,-95.2267,0206,-1.81,-6.76,7.0000,195.0000
1983-10-30 01:00:00 UTC,2445637.541667,28.7467,-95.2267,0206,-3.13,-7.36,8.0000,203.0000
1983-10-30 01:30:00 UTC,2445637.562500,28.7467,-95.2267,0206,-4.50,-7.79,9.0000,210.0000
1983-10-30 02:00:00 UTC,2445637.583333,28.7467,-95.2267,0206,-5.30,-8.48,10.0000,212.0000
1983-10-30 02:30:00 UTC,2445637.604167,28.7467,-95.2267,0206,-5.50,-9.53,11.0000,210.0000
1983-10-30 03:00:00 UTC,2445637.625000,28.7467,-95.2267,0206,-5.33,-9.62,11.0000,209.0000
1983-10-30 03:30:00 UTC,2445637.645833,28.7467,-95.2267,0206,-5.33,-9.62,11.0000,209.0000
1983-10-30 04:00:00 UTC,2445637.666667,28.7467,-95.2267,0206,-6.18,-10.29,12.0000,211.0000
1983-10-30 04:30:00 UTC,2445637.687500,28.7467,-95.2267,0206,-7.08,-10.90,13.0000,213.0000
1983-10-30 05:00:00 UTC,2445637.708333,28.7467,-95.2267,0206,-7.27,-10.78,13.0000,214.0000
1983-10-30 05:30:00 UTC,2445637.729167,28.7467,-95.2267,0206,-6.70,-11.14,13.0000,211.0000
1983-10-30 06:00:00 UTC,2445637.750000,28.7467,-95.2267,0206,-5.82,-10.50,12.0000,209.0000
1983-10-30 06:30:00 UTC,2445637.770833,28.7467,-95.2267,0206,-6.18,-10.29,12.0000,211.0000
1983-10-30 07:00:00 UTC,2445637.791667,28.7467,-95.2267,0206,-6.54,-10.06,12.0000,213.0000
1983-10-30 07:30:00 UTC,2445637.812500,28.7467,-95.2267,0206,-7.46,-10.65,13.0000,215.0000
1983-10-30 08:00:00 UTC,2445637.833333,28.7467,-95.2267,0206,-7.82,-10.38,13.0000,217.0000
1983-10-30 08:30:00 UTC,2445637.854167,28.7467,-95.2267,0206,-8.18,-10.10,13.0000,219.0000
1983-10-30 09:00:00 UTC,2445637.875000,28.7467,-95.2267,0206,-9.18,-10.57,14.0000,221.0000
1983-10-30 09:30:00 UTC,2445637.895833,28.7467,-95.2267,0206,-9.55,-10.24,14.0000,223.0000
1983-10-30 10:00:00 UTC,2445637.916667,28.7467,-95.2267,0206,-9.19,-9.19,13.0000,225.0000
1983-10-30 10:30:00 UTC,2445637.937500,28.7467,-95.2267,0206,-8.34,-8.63,12.0000,224.0000
1983-10-30 11:00:00 UTC,2445637.958333,28.7467,-95.2267,0206,-6.77,-8.67,11.0000,218.0000
1983-10-30 11:30:00 UTC,2445637.979167,28.7467,-95.2267,0206,-6.47,-8.90,11.0000,216.0000
1983-10-30 12:00:00 UTC,2445638.000000,28.7467,-95.2267,0206,-6.62,-8.79,11.0000,217.0000
1983-10-30 12:30:00 UTC,2445638.020833,28.7467,-95.2267,0206,-6.92,-8.55,11.0000,219.0000
1983-10-30 13:00:00 UTC,2445638.041667,28.7467,-95.2267,0206,-6.43,-7.66,10.0000,220.0000
1983-10-30 13:30:00 UTC,2445638.062500,28.7467,-95.2267,0206,-5.66,-6.99,9.0000,219.0000
1983-10-30 14:00:00 UTC,2445638.083333,28.7467,-95.2267,0206,-4.93,-6.30,8.0000,218.0000
1983-10-30 14:30:00 UTC,2445638.104167,28.7467,-95.2267,0206,-5.14,-6.13,8.0000,220.0000
1983-10-30 15:00:00 UTC,2445638.125000,28.7467,-95.2267,0206,-6.43,-7.66,10.0000,220.0000
1983-10-30 15:30:00 UTC,2445638.145833,28.7467,-95.2267,0206,-7.39,-9.46,12.0000,218.0000
1983-10-30 16:00:00 UTC,2445638.166667,28.7467,-95.2267,0206,-7.05,-9.71,12.0000,216.0000
1983-10-30 16:30:00 UTC,2445638.187500,28.7467,-95.2267,0206,-6.47,-8.90,11.0000,216.0000
1983-10-30 17:00:00 UTC,2445638.208333,28.7467,-95.2267,0206,-6.77,-8.67,11.0000,218.0000
1983-10-30 17:30:00 UTC,2445638.229167,28.7467,-95.2267,0206,-6.31,-9.01,11.0000,215.0000
1983-10-30 18:00:00 UTC,2445638.250000,28.7467,-95.2267,0206,-6.18,-10.29,12.0000,211.0000
1983-10-30 18:30:00 UTC,2445638.270833,28.7467,-95.2267,0206,-6.70,-11.14,13.0000,211.0000
1983-10-30 19:00:00 UTC,2445638.291667,28.7467,-95.2267,0206,-7.27,-10.78,13.0000,214.0000
1983-10-30 19:30:00 UTC,2445638.312500,28.7467,-95.2267,0206,-7.82,-10.38,13.0000,217.0000
1983-10-30 20:00:00 UTC,2445638.333333,28.7467,-95.2267,0206,-8.43,-11.18,14.0000,217.0000
1983-10-30 20:30:00 UTC,2445638.354167,28.7467,-95.2267,0206,-7.64,-10.52,13.0000,216.0000
1983-10-30 21:00:00 UTC,2445638.375000,28.7467,-95.2267,0206,-7.46,-10.65,13.0000,215.0000
1983-10-30 21:30:00 UTC,2445638.395833,28.7467,-95.2267,0206,-7.64,-10.52,13.0000,216.0000
1983-10-30 22:00:00 UTC,2445638.416667,28.7467,-95.2267,0206,-8.81,-10.88,14.0000,219.0000
1983-10-30 22:30:00 UTC,2445638.437500,28.7467,-95.2267,0206,-9.73,-10.07,14.0000,224.0000
1983-10-30 23:00:00 UTC,2445638.458333,28.7467,-95.2267,0206,-10.88,-8.81,14.0000,231.0000
1983-10-30 23:30:00 UTC,2445638.479167,28.7467,-95.2267,0206,-13.11,-9.18,16.0000,235.0000
1983-10-31 00:00:00 UTC,2445638.500000,28.7467,-95.2267,0206,-13.93,-9.75,17.0000,235.0000
1983-10-31 00:30:00 UTC,2445638.520833,28.7467,-95.2267,0206,-12.44,-8.39,15.0000,236.0000
1983-10-31 01:00:00 UTC,2445638.541667,28.7467,-95.2267,0206,-10.50,-5.82,12.0000,241.0000
1983-10-31 01:30:00 UTC,2445638.562500,28.7467,-95.2267,0206,-7.25,-3.38,8.0000,245.0000
1983-10-31 02:00:00 UTC,2445638.583333,28.7467,-95.2267,0206,-4.73,-3.69,6.0000,232.0000
1983-10-31 02:30:00 UTC,2445638.604167,28.7467,-95.2267,0206,-1.71,-4.70,5.0000,200.0000
1983-10-31 03:00:00 UTC,2445638.625000,28.7467,-95.2267,0206,-0.49,-6.98,7.0000,184.0000
1983-10-31 03:30:00 UTC,2445638.645833,28.7467,-95.2267,0206,-0.31,-8.99,9.0000,182.0000
1983-10-31 04:00:00 UTC,2445638.666667,28.7467,-95.2267,0206,-0.58,-10.98,11.0000,183.0000
1983-10-31 04:30:00 UTC,2445638.687500,28.7467,-95.2267,0206,-1.15,-10.94,11.0000,186.0000
1983-10-31 05:00:00 UTC,2445638.708333,28.7467,-95.2267,0206,-0.77,-10.97,11.0000,184.0000
1983-10-31 05:30:00 UTC,2445638.729167,28.7467,-95.2267,0206,0.77,-10.97,11.0000,176.0000
1983-10-31 06:00:00 UTC,2445638.750000,28.7467,-95.2267,0206,1.72,-10.86,11.0000,171.0000
1983-10-31 06:30:00 UTC,2445638.770833,28.7467,-95.2267,0206,1.88,-11.85,12.0000,171.0000
1983-10-31 07:00:00 UTC,2445638.791667,28.7467,-95.2267,0206,2.26,-12.80,13.0000,170.0000
1983-10-31 07:30:00 UTC,2445638.812500,28.7467,-95.2267,0206,2.70,-12.72,13.0000,168.0000
1983-10-31 08:00:00 UTC,2445638.833333,28.7467,-95.2267,0206,3.14,-12.61,13.0000,166.0000
1983-10-31 08:30:00 UTC,2445638.854167,28.7467,-95.2267,0206,2.67,-13.74,14.0000,169.0000
1983-10-31 09:00:00 UTC,2445638.875000,28.7467,-95.2267,0206,-0.30,-17.00,17.0000,181.0000
1983-10-31 09:30:00 UTC,2445638.895833,28.7467,-95.2267,0206,-3.47,-19.70,20.0000,190.0000
1983-10-31 10:00:00 UTC,2445638.916667,28.7467,-95.2267,0206,-3.43,-17.67,18.0000,191.0000
1983-10-31 10:30:00 UTC,2445638.937500,28.7467,-95.2267,0206,-4.11,-16.50,17.0000,194.0000
1983-10-31 11:00:00 UTC,2445638.958333,28.7467,-95.2267,0206,-8.33,-17.08,19.0000,206.0000
1983-10-31 11:30:00 UTC,2445638.979167,28.7467,-95.2267,0206,-12.64,-16.77,21.0000,217.0000
1983-10-31 12:00:00 UTC,2445639.000000,28.7467,-95.2267,0206,-14.43,-16.60,22.0000,221.0000
1983-10-31 12:30:00 UTC,2445639.020833,28.7467,-95.2267,0206,-13.12,-15.09,20.0000,221.0000
1983-10-31 13:00:00 UTC,2445639.041667,28.7467,-95.2267,0206,-12.71,-14.12,19.0000,222.0000
1983-10-31 13:30:00 UTC,2445639.062500,28.7467,-95.2267,0206,-13.79,-11.57,18.0000,230.0000
1983-10-31 14:00:00 UTC,2445639.083333,28.7467,-95.2267,0206,-13.75,-9.99,17.0000,234.0000
1983-10-31 14:30:00 UTC,2445639.104167,28.7467,-95.2267,0206,-12.23,-11.81,17.0000,226.0000
1983-10-31 15:00:00 UTC,2445639.125000,28.7467,-95.2267,0206,-11.57,-13.79,18.0000,220.0000
1983-10-31 15:30:00 UTC,2445639.145833,28.7467,-95.2267,0206,-11.08,-14.18,18.0000,218.0000
1983-10-31 16:00:00 UTC,2445639.166667,28.7467,-95.2267,0206,-10.32,-14.74,18.0000,215.0000
1983-10-31 16:30:00 UTC,2445639.187500,28.7467,-95.2267,0206,-9.79,-16.29,19.0000,211.0000
1983-10-31 17:00:00 UTC,2445639.208333,28.7467,-95.2267,0206,-10.89,-16.77,20.0000,213.0000
1983-10-31 17:30:00 UTC,2445639.229167,28.7467,-95.2267,0206,-12.34,-16.99,21.0000,216.0000
1983-10-31 18:00:00 UTC,2445639.250000,28.7467,-95.2267,0206,-12.64,-16.77,21.0000,217.0000
1983-10-31 18:30:00 UTC,2445639.270833,28.7467,-95.2267,0206,-13.22,-16.32,21.0000,219.0000
1983-10-31 19:00:00 UTC,2445639.291667,28.7467,-95.2267,0206,-13.78,-15.85,21.0000,221.0000
1983-10-31 19:30:00 UTC,2445639.312500,28.7467,-95.2267,0206,-13.12,-15.09,20.0000,221.0000
1983-10-31 20:00:00 UTC,2445639.333333,28.7467,-95.2267,0206,-13.12,-15.09,20.0000,221.0000
1983-10-31 20:30:00 UTC,2445639.354167,28.7467,-95.2267,0206,-13.64,-14.63,20.0000,223.0000
1983-10-31 21:00:00 UTC,2445639.375000,28.7467,-95.2267,0206,-14.39,-13.89,20.0000,226.0000
1983-10-31 21:30:00 UTC,2445639.395833,28.7467,-95.2267,0206,-14.86,-13.38,20.0000,228.0000
1983-10-31 22:00:00 UTC,2445639.416667,28.7467,-95.2267,0206,-14.86,-13.38,20.0000,228.0000
1983-10-31 22:30:00 UTC,2445639.437500,28.7467,-95.2267,0206,-14.63,-13.64,20.0000,227.0000
1983-10-31 23:00:00 UTC,2445639.458333,28.7467,-95.2267,0206,-14.14,-14.14,20.0000,225.0000
1983-10-31 23:30:00 UTC,2445639.479167,28.7467,-95.2267,0206,-12.50,-12.95,18.0000,224.0000
1983-11-01 00:00:00 UTC,2445639.500000,28.7467,-95.2267,0206,-12.23,-11.81,17.0000,226.0000
1983-11-01 00:30:00 UTC,2445639.520833,28.7467,-95.2267,0206,-11.89,-10.71,16.0000,228.0000
1983-11-01 01:00:00 UTC,2445639.541667,28.7467,-95.2267,0206,-11.15,-10.04,15.0000,228.0000
1983-11-01 01:30:00 UTC,2445639.562500,28.7467,-95.2267,0206,-10.07,-9.73,14.0000,226.0000
1983-11-01 02:00:00 UTC,2445639.583333,28.7467,-95.2267,0206,-9.90,-9.90,14.0000,225.0000
1983-11-01 02:30:00 UTC,2445639.604167,28.7467,-95.2267,0206,-10.24,-9.55,14.0000,227.0000
1983-11-01 03:00:00 UTC,2445639.625000,28.7467,-95.2267,0206,-11.32,-9.84,15.0000,229.0000
1983-11-01 03:30:00 UTC,2445639.645833,28.7467,-95.2267,0206,-10.97,-10.23,15.0000,227.0000
1983-11-01 04:00:00 UTC,2445639.666667,28.7467,-95.2267,0206,-10.79,-10.42,15.0000,226.0000
1983-11-01 04:30:00 UTC,2445639.687500,28.7467,-95.2267,0206,-10.97,-10.23,15.0000,227.0000
1983-11-01 05:00:00 UTC,2445639.708333,28.7467,-95.2267,0206,-10.79,-10.42,15.0000,226.0000
1983-11-01 05:30:00 UTC,2445639.729167,28.7467,-95.2267,0206,-10.97,-10.23,15.0000,227.0000
1983-11-01 06:00:00 UTC,2445639.750000,28.7467,-95.2267,0206,-11.89,-10.71,16.0000,228.0000
1983-11-01 06:30:00 UTC,2445639.770833,28.7467,-95.2267,0206,-13.02,-10.93,17.0000,230.0000
1983-11-01 07:00:00 UTC,2445639.791667,28.7467,-95.2267,0206,-12.43,-10.07,16.0000,231.0000
1983-11-01 07:30:00 UTC,2445639.812500,28.7467,-95.2267,0206,-11.70,-10.91,16.0000,227.0000
1983-11-01 08:00:00 UTC,2445639.833333,28.7467,-95.2267,0206,-11.81,-12.23,17.0000,224.0000
1983-11-01 08:30:00 UTC,2445639.854167,28.7467,-95.2267,0206,-12.28,-13.16,18.0000,223.0000
1983-11-01 09:00:00 UTC,2445639.875000,28.7467,-95.2267,0206,-13.44,-13.44,19.0000,225.0000
1983-11-01 09:30:00 UTC,2445639.895833,28.7467,-95.2267,0206,-14.12,-12.71,19.0000,228.0000
1983-11-01 10:00:00 UTC,2445639.916667,28.7467,-95.2267,0206,-15.76,-12.31,20.0000,232.0000
1983-11-01 10:30:00 UTC,2445639.937500,28.7467,-95.2267,0206,-16.55,-12.93,21.0000,232.0000
1983-11-01 11:00:00 UTC,2445639.958333,28.7467,-95.2267,0206,-15.32,-12.86,20.0000,230.0000
1983-11-01 11:30:00 UTC,2445639.979167,28.7467,-95.2267,0206,-13.58,-11.81,18.0000,229.0000
1983-11-01 12:00:00 UTC,2445640.000000,28.7467,-95.2267,0206,-11.31,-11.31,16.0000,225.0000
1983-11-01 12:30:00 UTC,2445640.020833,28.7467,-95.2267,0206,-9.84,-11.32,15.0000,221.0000
1983-11-01 13:00:00 UTC,2445640.041667,28.7467,-95.2267,0206,-9.64,-11.49,15.0000,220.0000
1983-11-01 13:30:00 UTC,2445640.062500,28.7467,-95.2267,0206,-10.04,-11.15,15.0000,222.0000
1983-11-01 14:00:00 UTC,2445640.083333,28.7467,-95.2267,0206,-11.70,-10.91,16.0000,227.0000
1983-11-01 14:30:00 UTC,2445640.104167,28.7467,-95.2267,0206,-11.32,-9.84,15.0000,229.0000
1983-11-01 15:00:00 UTC,2445640.125000,28.7467,-95.2267,0206,-9.66,-8.70,13.0000,228.0000
1983-11-01 15:30:00 UTC,2445640.145833,28.7467,-95.2267,0206,-9.35,-9.03,13.0000,226.0000
1983-11-01 16:00:00 UTC,2445640.166667,28.7467,-95.2267,0206,-9.03,-9.35,13.0000,224.0000
1983-11-01 16:30:00 UTC,2445640.187500,28.7467,-95.2267,0206,-9.55,-10.24,14.0000,223.0000
1983-11-01 17:00:00 UTC,2445640.208333,28.7467,-95.2267,0206,-10.23,-10.97,15.0000,223.0000
1983-11-01 17:30:00 UTC,2445640.229167,28.7467,-95.2267,0206,-10.50,-12.08,16.0000,221.0000
1983-11-01 18:00:00 UTC,2445640.250000,28.7467,-95.2267,0206,-10.50,-12.08,16.0000,221.0000
1983-11-01 18:30:00 UTC,2445640.270833,28.7467,-95.2267,0206,-11.15,-12.83,17.0000,221.0000
1983-11-01 19:00:00 UTC,2445640.291667,28.7467,-95.2267,0206,-11.57,-13.79,18.0000,220.0000
1983-11-01 19:30:00 UTC,2445640.312500,28.7467,-95.2267,0206,-11.96,-14.77,19.0000,219.0000
1983-11-01 20:00:00 UTC,2445640.333333,28.7467,-95.2267,0206,-11.57,-13.79,18.0000,220.0000
1983-11-01 20:30:00 UTC,2445640.354167,28.7467,-95.2267,0206,-11.57,-13.79,18.0000,220.0000
1983-11-01 21:00:00 UTC,2445640.375000,28.7467,-95.2267,0206,-11.08,-14.18,18.0000,218.0000
1983-11-01 21:30:00 UTC,2445640.395833,28.7467,-95.2267,0206,-11.08,-14.18,18.0000,218.0000
1983-11-01 22:00:00 UTC,2445640.416667,28.7467,-95.2267,0206,-11.08,-14.18,18.0000,218.0000
1983-11-01 22:30:00 UTC,2445640.437500,28.7467,-95.2267,0206,-11.08,-14.18,18.0000,218.0000
1983-11-01 23:00:00 UTC,2445640.458333,28.7467,-95.2267,0206,-11.33,-13.99,18.0000,219.0000
1983-11-01 23:30:00 UTC,2445640.479167,28.7467,-95.2267,0206,-11.57,-13.79,18.0000,220.0000
1983-11-02 00:00:00 UTC,2445640.500000,28.7467,-95.2267,0206,-11.57,-13.79,18.0000,220.0000
1983-11-02 00:30:00 UTC,2445640.520833,28.7467,-95.2267,0206,-11.15,-12.83,17.0000,221.0000
1983-11-02 01:00:00 UTC,2445640.541667,28.7467,-95.2267,0206,-11.81,-12.23,17.0000,224.0000
1983-11-02 01:30:00 UTC,2445640.562500,28.7467,-95.2267,0206,-12.73,-12.73,18.0000,225.0000
1983-11-02 02:00:00 UTC,2445640.583333,28.7467,-95.2267,0206,-12.50,-12.95,18.0000,224.0000
1983-11-02 02:30:00 UTC,2445640.604167,28.7467,-95.2267,0206,-11.59,-12.43,17.0000,223.0000
1983-11-02 03:00:00 UTC,2445640.625000,28.7467,-95.2267,0206,-10.04,-11.15,15.0000,222.0000
1983-11-02 03:30:00 UTC,2445640.645833,28.7467,-95.2267,0206,-8.70,-9.66,13.0000,222.0000
1983-11-02 04:00:00 UTC,2445640.666667,28.7467,-95.2267,0206,-8.70,-9.66,13.0000,222.0000
1983-11-02 04:30:00 UTC,2445640.687500,28.7467,-95.2267,0206,-7.82,-10.38,13.0000,217.0000
1983-11-02 05:00:00 UTC,2445640.708333,28.7467,-95.2267,0206,-7.42,-11.87,14.0000,212.0000
1983-11-02 05:30:00 UTC,2445640.729167,28.7467,-95.2267,0206,-7.00,-12.12,14.0000,210.0000
1983-11-02 06:00:00 UTC,2445640.750000,28.7467,-95.2267,0206,-7.73,-12.86,15.0000,211.0000
1983-11-02 06:30:00 UTC,2445640.770833,28.7467,-95.2267,0206,-8.17,-12.58,15.0000,213.0000
1983-11-02 07:00:00 UTC,2445640.791667,28.7467,-95.2267,0206,-7.42,-11.87,14.0000,212.0000
1983-11-02 07:30:00 UTC,2445640.812500,28.7467,-95.2267,0206,-7.95,-12.72,15.0000,212.0000
1983-11-02 08:00:00 UTC,2445640.833333,28.7467,-95.2267,0206,-8.60,-12.29,15.0000,215.0000
1983-11-02 08:30:00 UTC,2445640.854167,28.7467,-95.2267,0206,-9.40,-12.94,16.0000,216.0000
1983-11-02 09:00:00 UTC,2445640.875000,28.7467,-95.2267,0206,-9.40,-12.94,16.0000,216.0000